Childress, TX

4:58 PM CDT on June 28, 2017 (GMT -0500)
Childress Municipal

Weather History for KCDS - May, 2014

Change the Weather History Date:

Tuesday, May 6, 2014

  Actual Average Record
Temperature  
Mean Temperature 82 °F 68 °F  
Max Temperature 102 °F 82 °F 102 °F (2014)
Min Temperature 61 °F 55 °F 39 °F (1898)
Degree Days  
Heating Degree Days 0 1  
Month to date heating degree days 14 11  
Since 1 July heating degree days 3440 3099  
Cooling Degree Days 17 5  
Month to date cooling degree days 62 27  
Year to date cooling degree days 156 118  
Growing Degree Days 31 (Base 50)    
Moisture  
Dew Point 17 °F    
Average Humidity 13    
Maximum Humidity 20    
Minimum Humidity 5    
Precipitation  
Precipitation 0.00 in 0.09 in 2.02 in (1897)
Month to date precipitation 0.00 0.49  
Year to date precipitation 2.35 5.92  
Snow  
Snow 0.00 in 0.00 in - ()
Month to date snowfall 0.0 0.0  
Since 1 July snowfall 9.5 7.0  
Snow Depth -    
Sea Level Pressure  
Sea Level Pressure 29.54 in    
Wind  
Wind Speed 15 mph (SW)    
Max Wind Speed 29 mph    
Max Gust Speed 43 mph    
Visibility 10 miles    
Events      
T = Trace of Precipitation, MM = Missing Value Source: NWS Daily Summary

Daily Weather History Graph

Daily Weather History Graph

Search for Another Location

Airport or City:

Trip Planner

Search our weather history database for the weather conditions in past years. The results will help you decide how hot, cold, wet, or windy it might be!

Date:

Astronomy

May. 06, 2014 Rise Set
Actual Time 6:46 AM CDT 8:29 PM CDT
Civil Twilight 6:19 AM CDT 8:56 PM CDT
Nautical Twilight 5:46 AM CDT 9:29 PM CDT
Astronomical Twilight 5:11 AM CDT 10:04 PM CDT
Moon 1:00 PM CDT (5/6) 1:52 AM CDT (5/6)
Length of Visible Light 14h 37m
Length of Day
13h 43m
Waxing Crescent, 46% of the Moon is Illuminated
May 6
Waxing Crescent
May 6
First Quarter
May 14
Full
May 21
Last Quarter
May 28
New

Hourly Weather History & Observations

Time (CDT) Temp. Dew Point Humidity Pressure Visibility Wind Dir Wind Speed Gust Speed Precip Events Conditions
12:53 AM 73.4 °F 17.6 °F 12% 29.68 in 10.0 mi SW 10.4 mph - N/A   Clear
1:53 AM 72.0 °F 18.0 °F 13% 29.57 in 10.0 mi WSW 9.2 mph - N/A   Clear
6:53 AM 62.1 °F 21.0 °F 21% 29.61 in 10.0 mi WSW 6.9 mph - N/A   Clear
7:53 AM 69.1 °F 23.0 °F 18% 29.61 in 10.0 mi SW 10.4 mph - N/A   Clear
9:53 AM 86.0 °F 19.9 °F 9% 29.60 in 10.0 mi WSW 12.7 mph - N/A   Clear
10:53 AM 91.0 °F 19.0 °F 7% 29.59 in 10.0 mi West 16.1 mph - N/A   Clear
11:53 AM 95.0 °F 16.0 °F 6% 29.57 in 8.0 mi West 13.8 mph 20.7 mph N/A   Clear
12:53 PM 98.1 °F 15.1 °F 5% 29.55 in 10.0 mi West 15.0 mph 21.9 mph N/A   Clear
1:53 PM 98.1 °F 15.1 °F 5% 29.53 in 10.0 mi SW 15.0 mph 29.9 mph N/A   Clear
2:53 PM 100.9 °F 18.0 °F 5% 29.51 in 10.0 mi SW 20.7 mph 24.2 mph N/A   Clear
3:53 PM 99.0 °F 18.0 °F 5% 29.49 in 10.0 mi SW 25.3 mph 34.5 mph N/A   Clear
4:53 PM 100.9 °F 18.0 °F 5% 29.47 in 10.0 mi SW 25.3 mph 36.8 mph N/A   Clear
5:53 PM 99.0 °F 19.0 °F 6% 29.47 in 8.0 mi SW 26.5 mph 31.1 mph N/A   Clear
6:53 PM 98.1 °F 19.0 °F 6% 29.47 in 10.0 mi SW 27.6 mph 32.2 mph N/A   Clear
7:53 PM 93.9 °F 18.0 °F 6% 29.48 in 10.0 mi WSW 21.9 mph 29.9 mph N/A   Clear
8:53 PM 87.1 °F 12.0 °F 6% 29.49 in 10.0 mi SW 11.5 mph - N/A   Clear
9:53 PM 82.9 °F 12.9 °F 7% 29.51 in 10.0 mi SSW 11.5 mph - N/A   Clear
10:53 PM 77.0 °F 14.0 °F 9% 29.53 in 10.0 mi SW 8.1 mph - N/A   Clear
11:53 PM 75.0 °F 15.1 °F 10% 29.53 in 10.0 mi SW 11.5 mph - N/A   Clear